RH
100 98 100 96 93 83 73 72 65 71 79 78 76 72 66 63 58 54 50 47 42 28 13 8 8 6 5 7 10 13 14 15 14 14 21 71 96 95
100 100 100 100 93 86 87 70 57 46 52 58 62 69 66 68 64 60 53 48 37 16 10 7 6 6 7 9 12 16 14 12 11 12 15 40 62 75
100 100 100 98 99 94 85 70 62 62 65 63 60 58 58 61 61 56 52 40 18 12 9 8 8 9 10 11 13 12 12 12 10 13 16 16 17 37
100 100 100 98 98 92 82 70 73 78 72 58 52 54 57 56 51 47 35 16 10 9 9 10 12 13 12 12 11 11 12 11 14 14 16 17 21 75
100 100 99 100 99 91 94 86 80 70 60 49 50 49 47 44 38 25 13 10 10 10 12 13 14 15 13 12 13 14 16 16 19 18 17 30 82 98
100 98 100 89 96 87 82 80 58 44 46 51 45 34 31 27 17 13 12 11 12 13 13 14 13 12 14 15 16 17 18 22 21 20 33 62 72 86
99 100 95 91 90 79 50 46 49 50 50 45 19 18 17 14 13 13 13 14 15 14 14 16 13 13 18 20 19 21 26 26 25 28 60 91 97 100
94 90 88 77 48 44 44 45 35 22 15 12 13 14 15 15 15 16 15 16 15 17 14 14 14 15 18 18 21 22 24 28 32 36 85 100 98 97
89 80 52 37 25 18 15 14 14 14 15 16 16 16 14 16 16 19 19 18 17 17 15 13 15 15 17 20 22 25 29 34 36 47 41 36 76 100
59 53 55 26 16 16 16 16 18 19 18 18 18 18 18 19 20 20 18 17 17 17 17 15 17 15 17 21 23 27 34 34 31 32 37 61 97 100
70 35 17 14 14 16 19 20 20 20 21 22 23 22 22 20 19 18 18 17 17 20 22 27 27 23 18 20 26 31 34 33 33 36 39 48 63 98
21 19 18 18 22 23 22 21 23 25 27 28 27 25 24 22 20 20 20 20 22 26 32 36 30 35 29 22 26 30 33 33 36 40 41 39 43 51
18 20 23 24 24 24 24 26 31 40 39 34 30 28 26 26 24 24 24 23 25 30 39 44 37 39 51 46 23 29 34 36 37 36 37 37 38 68
20 22 25 27 29 28 36 61 57 37 35 35 33 31 31 32 31 28 26 25 25 28 39 52 50 48 54 55 53 31 35 37 40 41 45 45 50 53
25 34 40 29 30 52 70 39 36 37 38 36 34 32 34 38 38 33 31 29 26 27 38 51 56 55 62 64 62 39 44 41 43 57 70 62 52 51
59 60 50 49 58 41 32 34 37 39 43 43 38 34 35 38 43 45 44 38 34 29 33 49 62 70 65 56 59 44 51 80 60 60 62 58 59 52
41 40 46 46 33 30 29 31 34 38 45 46 42 39 38 39 43 49 50 49 42 38 32 37 62 69 70 67 62 63 66 64 62 65 82 80 67 56
39 34 35 29 27 27 26 28 33 38 45 50 53 51 49 47 45 47 54 56 52 46 40 37 50 67 71 66 67 70 76 77 76 81 83 78 57 52
32 32 28 27 28 28 28 29 30 33 39 47 53 59 60 60 58 54 52 58 60 54 46 48 72 94 100 97 67 83 94 96 88 74 72 69 71 55
32 32 30 29 30 30 30 29 30 31 32 34 37 39 44 47 50 56 56 60 66 61 52 66 93 100 100 100 100 82 82 80 76 70 69 73 70 65
30 30 31 32 33 32 32 31 31 32 34 35 39 54 72 80 52 54 57 64 80 86 85 87 95 100 100 99 94 75 66 67 77 85 86 92 82 93
28 29 31 32 32 32 31 31 31 32 34 40 47 68 90 64 58 66 80 98 99 100 100 99 92 90 95 99 93 84 68 61 64 68 70 78 96 100
27 28 28 29 30 32 32 32 32 34 36 43 48 85 76 69 80 90 100 100 100 100 100 99 93 95 94 91 94 94 82 72 70 70 63 70 76 78
Wind_Speed
38 37 39 33 23 20 21 15 17 20 24 24 22 26 25 25 23 21 19 17 18 18 18 17 17 15 15 16 16 17 18 19 20 20 20 17 17 18
33 36 32 28 26 24 17 16 17 12 13 17 18 19 19 24 23 20 19 17 17 18 17 16 16 15 15 15 15 17 19 20 21 21 21 19 20 21
34 31 31 27 22 20 20 20 19 15 13 15 16 14 15 19 18 18 17 16 16 15 15 14 15 16 15 15 16 19 20 22 22 21 22 22 24 23
30 28 27 27 26 22 20 24 18 16 15 15 16 15 14 16 15 14 12 14 13 14 13 14 15 15 15 16 19 20 20 22 21 22 24 24 24 22
27 24 22 22 18 18 19 19 17 17 17 16 16 15 14 12 11 11 11 11 11 12 13 14 14 15 17 18 18 18 19 21 22 22 24 23 20 19
19 17 21 18 19 20 13 15 16 18 16 14 15 14 12 11 11 10 9 9 9 11 11 11 13 16 16 16 15 18 19 22 23 23 21 18 18 19
21 22 19 17 12 11 16 18 17 15 15 15 15 13 12 10 9 8 8 7 9 10 9 11 13 12 13 14 16 18 21 23 20 18 17 17 19 20
21 19 16 12 14 14 14 14 12 11 13 13 13 11 9 7 6 6 7 7 7 8 11 10 12 12 14 16 18 19 20 16 17 19 18 19 22 26
19 18 18 15 15 16 14 13 14 13 11 9 7 6 4 3 4 6 7 8 9 10 14 12 13 12 16 17 19 17 12 18 20 22 24 24 25 25
18 18 16 16 15 13 14 15 14 13 11 8 6 3 1 2 3 5 8 10 12 13 14 17 16 16 17 17 16 10 17 20 22 22 23 23 23 25
19 19 19 19 18 16 15 15 14 12 9 6 3 2 2 4 8 9 10 12 13 14 15 15 18 22 20 15 8 19 20 22 21 21 22 25 25 24
21 20 18 18 17 16 13 12 11 10 6 4 4 7 7 8 8 9 11 13 16 15 14 19 22 23 20 13 23 23 23 21 23 22 23 24 23 24
22 21 19 16 15 14 12 11 8 6 4 5 6 7 7 8 9 11 13 15 16 17 16 20 24 23 23 28 29 29 26 26 27 25 21 22 23 22
22 20 18 16 14 12 10 8 4 1 4 5 6 7 8 10 11 13 14 16 18 19 18 18 22 23 24 30 34 32 30 27 28 25 26 23 24 25
18 17 13 13 12 9 3 4 3 3 3 4 6 8 10 12 14 15 17 18 20 20 20 19 21 22 24 28 33 35 35 32 24 28 28 26 28 28
13 12 10 6 5 5 4 3 2 1 4 6 9 11 13 14 16 17 19 20 22 21 20 19 20 21 25 28 31 34 31 34 31 30 30 32 31 28
9 9 9 8 8 7 5 3 1 4 6 8 10 13 15 16 18 19 21 23 24 26 27 24 21 23 26 29 32 31 31 29 28 32 37 40 37 30
9 9 9 9 7 6 5 5 5 6 8 10 12 14 16 18 20 21 23 24 26 27 29 29 28 28 30 30 25 26 30 32 31 36 37 38 41 35
10 9 8 8 7 7 8 9 10 12 13 15 16 17 20 22 24 25 26 27 29 30 31 30 27 27 29 35 33 27 27 33 38 35 33 34 38 37
11 10 9 9 10 11 12 13 15 17 17 18 19 20 23 26 28 28 28 29 31 31 32 31 29 26 25 30 36 39 33 32 31 34 34 33 35 35
10 10 10 11 13 14 16 17 19 20 19 20 20 22 27 29 30 30 30 29 30 29 32 31 29 25 25 28 34 37 34 29 29 31 33 35 37 39
12 13 14 16 17 18 19 20 21 22 21 22 22 26 29 29 30 30 30 30 30 29 32 31 28 27 27 27 34 37 37 35 30 29 28 29 31 37
14 15 16 18 19 20 20 21 23 24 24 24 27 30 28 28 29 29 28 28 29 30 30 31 29 29 29 30 32 37 38 37 37 37 36 33 32 30
Wind_Direction
221 222 220 203 197 212 214 226 222 202 218 222 228 234 235 239 240 244 250 256 265 272 278 283 284 287 288 289 289 289 294 297 297 298 299 302 302 303
221 222 206 207 207 203 212 208 201 217 200 220 227 235 237 240 242 245 251 261 269 275 281 283 288 292 292 291 291 294 294 297 298 296 298 299 300 301
202 196 200 208 219 211 198 189 203 215 226 222 229 231 237 234 235 243 250 259 270 280 282 290 294 294 294 292 296 300 300 295 294 299 299 300 298 299
224 213 213 206 200 195 191 199 213 236 240 235 230 226 221 223 223 236 247 261 273 279 290 294 299 294 296 300 297 296 294 295 300 301 299 300 300 302
215 208 208 194 193 198 206 213 222 232 234 239 230 220 222 218 221 233 247 264 276 287 294 298 300 296 295 294 296 297 299 302 302 305 306 306 305 305
202 203 189 188 194 193 208 230 235 232 224 220 219 217 206 203 213 232 251 265 279 289 293 293 292 294 300 302 312 314 312 311 315 315 314 306 300 301
180 182 174 177 191 208 221 223 219 210 205 202 200 190 193 200 215 239 253 271 285 286 292 295 305 307 306 316 321 316 311 312 320 322 313 307 307 309
180 176 176 173 194 191 187 179 175 190 184 181 177 176 186 206 231 261 276 279 296 303 311 319 315 318 314 322 315 311 310 322 320 317 311 302 302 305
167 166 161 170 169 169 164 166 165 159 157 158 167 169 182 226 269 274 290 323 328 319 316 318 320 312 320 318 310 309 320 326 323 316 314 317 314 307
156 156 164 165 160 162 161 159 156 150 146 144 145 134 161 250 296 325 335 336 330 325 320 317 322 323 322 317 311 323 326 326 321 315 315 314 308 304
158 160 161 154 149 152 157 153 145 141 137 132 130 111 44 14 3 342 336 329 328 327 321 317 320 323 327 326 312 329 328 324 319 318 315 308 307 306
152 150 149 149 146 143 147 143 140 128 131 121 56 28 17 2 347 336 333 333 331 331 326 321 322 329 329 322 319 325 326 321 320 320 315 313 312 308
150 147 143 142 141 137 133 123 112 69 29 24 11 3 348 336 335 333 332 331 330 324 321 313 313 318 311 309 318 324 328 324 320 320 314 312 314 318
147 142 138 136 135 129 115 78 51 358 38 10 350 339 340 339 334 331 332 332 329 323 317 309 304 309 305 305 306 319 322 321 317 318 319 316 316 315
131 126 129 130 121 93 101 156 83 43 356 334 336 339 340 338 335 331 329 327 327 326 320 312 306 305 301 300 304 311 317 318 317 320 320 314 317 319
139 134 114 127 154 174 163 150 129 355 340 341 337 333 331 332 332 329 327 324 324 327 320 315 306 305 306 305 303 304 313 306 315 317 317 316 318 320
133 150 160 184 193 187 182 197 276 340 341 327 321 321 320 320 322 323 324 322 319 323 326 326 316 306 303 302 299 305 309 304 313 319 319 313 313 316
187 187 196 199 204 217 236 261 286 300 313 314 310 311 315 318 319 317 317 319 319 322 322 322 318 313 311 307 303 311 309 307 313 314 309 308 311 316
201 207 215 224 238 253 266 277 285 291 295 300 306 314 315 317 316 316 317 319 319 318 317 318 317 315 311 304 311 307 306 305 310 309 310 310 311 316
217 226 235 246 258 270 280 284 286 287 291 298 305 310 313 315 314 314 316 316 315 312 311 314 311 308 300 300 301 301 308 310 315 313 315 315 312 315
245 252 261 266 272 277 280 282 284 286 292 302 307 314 316 312 311 310 310 308 308 305 305 309 311 308 297 297 300 310 318 319 315 314 316 314 314 314
262 268 272 274 277 281 284 286 290 295 299 301 301 307 309 304 303 305 305 304 307 305 306 309 313 315 315 313 310 314 320 323 324 320 317 313 305 297
278 279 279 279 281 284 288 293 295 294 293 294 293 301 301 300 300 302 302 301 304 307 313 314 317 317 315 313 314 314 317 321 325 324 320 324 319 313